Погода в Лаукуве

Поиск расширенной информации на нашем сайте:

Полезная информация:

Новости сайта



02.01.2020
Опубликован Долгосрочный прогноз погоды по городам России и ближнего зарубежья на январь 2020 года.
Карты: Прогноз на январь и февраль 2020 года, Сравнение прогнозируемой аномалии приземной температуры воздуха на январь 2020 года по разным моделям.




Погода в Лаукуве - сегодня

Время (UTC), дата Ветер
(°,м/с) 
Видим.   Явления Облачность Т
(°С)
Тd
(°С)
f(%) Тe
(°С)
Pmin
(гПа)
dP
(гПа)
Po
(мм)
O2
(г/м3)
Тmin Tmax R s Состояние
почвы
12 19.10.20 280 (З) 7-12{16}  20000 м    6/3 1000 м верхняя 
[Cu med, cong|Ci sp]
+7.8 -0.4 56 +6  1014.1  0.8  745  292           
15 19.10.20 270 (З) 4-7{14}  20000 м    5/4 1320 м верхняя 
[Cu med, cong|Ci sp]
+6.8 +0.5 64 +5  1015  0.8  746  293           
18 19.10.20 230 (ЮЗ) 3-5{07}  20000 м    3/0 верхняя 
[Ci fib]
+3.8 +0 76 +3  1016.3  747  297    +9.6       
21 19.10.20 240 (ЮЗ) 2-3{06}  20000 м    ясно 
+3.4 -0.2 77 +3  1017.6  1.3  748  298           
00 20.10.20 240 (ЮЗ) 2-3{04}  20000 м    3/0 верхняя 
[Ci sp]
+2.5 -0.1 83 +2  1018.7  749  299           
03 20.10.20 250 (З) 2-3{04}  20000 м    ясно 
+1.6 -0.6 85 +1  1020  1.2  749  300           
06 20.10.20 тихо () -2{04}  18000 м    4/0 верхняя 
[Ci sp]
+2 -0.2 85 +2  1021.7  1.7  751  300  +1        замёрзшая 
09 20.10.20 тихо () -2{03}  20000 м    10/0 верхняя 
[Cs]
+7.2 +2.2 70 +7  1022.6  1.3  752  295           
12 20.10.20 170 (Ю) 3-4{04}  20000 м    10/3 1000 м средняя, верхняя 
[Sc|Ac trans|Cs]
+7.8 +2.9 71 +7  1022.5  0.1  752  294           
15 20.10.20 140 (ЮВ) 2-3{05}  20000 м    10/3 1000 м средняя 
[Sc|Ac As]
+6.6 +4.4 86 +6  1021  -1.6  750  295           
18 20.10.20 160 (Ю) 4-6{06}  20000 м  {дождь}  10/0 средняя 
[Ac As]
+6.5 +5.5 93 +5  1019.5  -1.4  749  294    +8.1  0.0     
21 20.10.20 150 (ЮВ) 5-7{07}  16000 м    10/5 1440 м средняя 
[Sc|Ac As]
+6 +4.8 92 +4  1016.8  -2.7  747  294           
00 21.10.20 150 (ЮВ) 4-7{09}  11000 м  {дождь}  10/0 средняя 
[Ac As]
+5.8 +4.8 93 +4  1013.9  -2.9  745  293      0.2     
03 21.10.20 140 (ЮВ) 3-4{08}  10 км    10/0 средняя 
[Ac As]
+5.9 +4.8 93 +5  1011.4  -2.4  743  292           
06 21.10.20 200 (Ю) 3-5{07}  8000 м  дымка  10/10 420 м 
[Sc]
+6.6 +5.6 93 +6  1011  -0.3  743  291  +5.8    0.2    влажная 
09 21.10.20 220 (ЮЗ) 4-6{07}  9000 м  дымка  10/10 180 м 
[St]
+8.3 +6.8 90 +7  1011.8  0.9  744  290           
12 21.10.20 220 (ЮЗ) 3-6{07}  8000 м  дымка  10/10 240 м 
[St]
+8.8 +7.2 90 +8  1011.8  0.1  744  289           
15 21.10.20 150 (ЮВ) 3-4{06}  10 км    10/10 270 м 
[St]
+9.3 +8 92 +9  1011.4  -0.4  743  288           
18 21.10.20 170 (Ю) 4-6{07}  5000 м  слаб. дождь  10/10 100 м 
[Frnb|Ns]
+9.4 +8.9 97 +8  1010.3  -0.9  743  288    +9.5  0.5     
21 21.10.20 200 (Ю) 5-9{09}  3700 м  слаб. дождь  10/10 60 м 
[Frnb|Ns]
+10 +9.7 98 +10  1009.4  -0.9  742  287           
00 22.10.20 190 (Ю) 6-10{10}  6000 м  в посл. час дождь  10/10 210 м 
[Frnb|Ns]
+9.5 +8.9 96 +8  1007.7  -1.7  741  287         
03 22.10.20 200 (Ю) 7-11{11}  8000 м  дымка{дождь}  6/6 210 м 
[St]
+9.2 +8.2 93 +7  1005.2  -2.5  739  287           
06 22.10.20 210 (ЮЗ) 6-9{11}  9000 м  дымка{дождь}  9/5 1000 м средняя 
[Sc|Ac und]
+9.2 +8.1 93 +7  1004.3  -0.8  738  286  +8.6      влажная 
09 22.10.20 230 (ЮЗ) 6-10{12}  20000 м    10/8 700 м средняя 
[Sc|Ac und]
+11.8 +9.3 85 +12  1004.3  738  284           
12 22.10.20 250 (З) 10-15{20}  18000 м  слаб. ливневой дождь  10/10 420 м кучево-дожд. 
[Cb cap]
+13.1 +10.7 85 +13  1004.8  0.5  739  282      0.0     
Время (UTC), дата Ветер
(°,м/с) 
Видим.   Явления Облачность Т
(°С)
Тd
(°С)
f(%) Тe
(°С)
Pmin
(гПа)
dP
(гПа)
Po
(мм)
O2
(г/м3)
Тmin Tmax R s Состояние
почвы

Для получения пояснительной информации подведите курсор к названию столбца.

ПОГОДА в Лаукуве - архив

Всё, что Вы хотите узнать о погоде в Лаукуве - удобно и подробно!

Выберите нужную дату (начиная с 1 января 2019* года) и нажмите кнопку "Найти".
Будут отображены архивные сводки погоды по пункту Лаукува, начиная с указанной даты.


Отображать данные в формате CSV (для использования в таблицах Excel)


Внимание! Наш архив погоды предназначен исключительно для личного некоммерческого использования в познавательных целях. Если Вам необходимы официальные справки о состоянии погоды (для производственных, юридических, коммерческих и т.п. целей), обращайтесь в органы Росгидромета.

*Примечание: данная дата относится к архиву по метеостанциям СССР (Россия, СНГ, Балтия).
Архив по метеостанциям Зарубежной Европы и Азии (кроме Китая) хранится 10 дней, по другим регионам земного шара (Китай, Африка, Америка, Австралия, Океания) - 1 день.

Лаукува - район местоположения метеостанции


Название, широта, долгота, высота метеостанции:
Лаукува 55.6°ш. 22.2°д. 166 м над ур. моря [Литва]

Дополнительная информация

В oтличие oт бoльшинства пoгoдных сайтoв мы публикуем пoдрoбную метеoинфoрмацию в детальнoм прoфессиoнальнoм фoрмате.

Характеристики температуры и влажнoсти вoздуха измеряются на высoте 2 м в тени вдали oт зданий и деревьев.
Скoрoсть ветра измеряется на высoте 10 м (на урoвне рoста челoвека скoрoсть ветра ниже в 1.5-2 раза). Если метеoстанция нахoдится в гoрoде или в лесу, тo скoрoсть ветра занижена на 2-4 м/с пo сравнению с oткрытым местoм. Скoрoсть ветра над акватoриями крупных рек и oзёр, а также на вершинах хoлмoв на 2-5 м/с выше, чем в oбычных услoвиях.
Атмoсфернoе давление в разных тoчках местнoсти мoжет значительнo oтличаться oт давления на метеoстанции, в зависимoсти oт услoвий рельефа (при пoдъёме на 10 м давление пoнижается примернo на 1 мм рт.ст.).